Theta_e
302 302 302 303 303 303 303 303 303 304 304 304 304 304 307 308 308 309 310 311 309 309 314 315 313 315 312 307 307 308 308 308 308 307 308 308 308 310 311 309 309 311 309 309 309 308 310 310 309 311 309 307 307 308 308 309 309 310 313 313 311 314 317 314 316 320 316 312 311 308 307 310 310 310 312 313 310 313 317 319 319 317 315 316 314 315 321
301 302 302 302 302 302 303 303 303 303 303 304 304 304 306 306 306 308 309 309 309 309 313 315 317 315 310 308 309 308 307 307 307 307 307 308 309 311 311 308 308 308 308 309 308 307 309 309 308 310 309 307 307 307 309 311 310 310 312 312 309 311 316 313 313 315 313 314 317 314 314 315 311 308 309 310 309 310 313 314 313 313 316 316 316 317 318
301 302 302 302 302 302 302 302 303 303 303 303 303 304 305 306 307 307 306 306 308 309 309 309 312 314 310 310 313 310 307 307 308 308 307 306 308 309 309 308 307 308 308 309 309 308 308 309 309 309 309 308 308 306 308 310 311 312 313 311 307 309 313 313 312 312 311 312 314 314 317 315 309 307 307 308 309 308 311 312 309 312 315 313 316 320 317
301 301 301 302 302 302 302 302 302 302 303 303 303 303 305 307 309 309 308 306 305 305 306 305 309 311 309 312 315 310 308 309 308 308 307 306 307 307 306 306 308 309 309 310 310 309 308 309 310 310 310 311 308 306 307 308 309 312 311 308 310 313 312 312 314 314 312 311 311 312 314 311 309 309 307 308 310 310 312 311 308 313 316 312 314 317 314
301 301 301 301 301 301 302 302 302 302 302 302 303 303 304 306 308 308 308 307 306 307 306 304 306 307 307 311 313 310 311 311 309 309 307 306 307 306 305 305 307 308 309 310 309 309 311 311 310 310 310 312 309 306 306 306 307 309 306 306 312 314 311 312 313 312 311 310 309 310 310 308 309 309 307 309 311 310 310 310 310 313 311 309 315 316 312
300 300 300 301 301 301 301 302 302 302 302 302 302 302 304 305 306 305 305 306 308 308 307 305 306 306 307 310 311 310 311 311 310 310 307 305 307 307 307 307 306 307 308 309 308 309 312 312 311 310 309 311 311 308 307 306 305 305 305 306 308 308 310 311 309 311 312 310 308 309 308 308 308 308 308 309 310 309 309 310 312 312 309 308 314 316 311
300 300 300 300 300 301 301 301 302 302 302 302 302 302 302 303 304 304 304 305 305 306 306 305 307 308 308 310 311 308 308 308 308 307 307 307 306 307 309 308 305 306 309 310 310 308 309 309 309 309 308 308 309 309 309 307 304 304 306 306 305 307 311 311 307 309 312 310 310 309 307 307 307 307 308 308 309 310 310 310 311 311 309 310 310 311 309
299 299 300 299 299 300 300 301 301 301 301 301 301 301 301 301 303 303 304 305 305 306 306 305 307 309 307 308 308 306 305 306 305 304 305 306 306 306 309 307 304 306 310 311 309 307 308 308 307 306 307 308 309 308 308 307 304 304 306 306 305 306 310 310 307 308 311 312 312 309 307 307 306 306 307 308 310 310 308 307 308 307 307 309 308 307 308
299 299 299 299 299 299 299 299 300 300 301 300 300 300 300 301 302 302 304 307 307 306 304 304 308 310 307 307 308 306 305 303 303 304 304 304 305 307 308 307 306 306 308 309 307 305 308 308 305 304 305 306 307 306 306 305 304 305 307 306 306 306 308 311 310 307 309 311 310 309 309 308 306 305 306 307 309 311 309 307 308 309 308 308 306 306 310
299 299 299 299 299 299 298 298 299 299 299 299 299 299 299 300 301 301 303 306 305 304 304 304 307 307 304 304 306 305 305 302 302 306 306 304 304 305 305 306 306 306 306 306 305 304 305 305 303 303 304 304 304 304 304 302 303 306 306 305 307 308 307 309 309 306 307 309 307 307 309 307 307 309 308 307 308 309 308 307 308 309 307 307 307 308 312
299 298 299 298 298 298 298 297 297 298 298 298 298 298 297 298 300 301 302 304 303 301 303 306 306 305 302 302 303 304 304 303 302 305 306 304 303 303 304 303 305 307 306 303 303 303 303 303 303 302 302 303 302 302 302 301 301 303 305 305 307 308 306 307 307 306 309 310 306 306 307 306 308 313 312 308 308 308 307 308 312 311 308 308 310 309 309
297 297 298 298 297 298 297 296 296 296 297 297 297 298 297 297 299 300 301 305 304 301 303 304 302 301 302 301 301 303 303 303 303 302 303 304 302 302 302 301 302 305 304 301 302 303 302 302 302 303 302 301 302 301 301 302 302 300 301 302 305 306 305 306 306 305 306 307 305 305 306 304 306 311 309 308 310 311 309 311 315 312 309 309 309 309 310
297 297 297 297 296 297 296 296 295 294 296 297 297 297 297 296 298 299 300 303 304 302 303 303 300 299 300 300 300 301 301 301 301 301 302 303 301 300 300 300 300 301 301 302 302 302 303 304 304 304 303 301 303 302 301 302 302 300 300 301 302 304 305 304 305 305 304 304 305 305 305 304 306 308 307 305 307 306 305 308 311 308 307 308 309 310 309
296 296 296 296 296 296 296 295 294 293 294 296 297 297 297 296 296 297 298 300 302 301 300 302 301 299 299 299 299 300 301 300 301 301 301 301 300 300 300 300 300 300 301 302 301 302 306 308 307 306 304 304 305 305 302 302 302 302 302 301 300 302 304 303 303 304 304 305 306 306 304 304 305 305 304 304 304 303 303 306 308 306 306 306 308 311 309
296 296 296 296 296 296 295 295 294 293 292 294 296 297 296 296 296 296 297 299 300 300 299 300 299 298 297 298 299 300 302 301 300 301 301 299 299 300 300 300 300 300 301 301 302 304 306 305 305 305 304 304 304 303 302 302 301 301 302 301 300 301 303 304 304 304 303 304 305 305 305 306 306 303 303 303 302 301 301 303 305 305 304 303 305 309 309
296 296 295 295 295 294 294 294 294 293 291 292 295 296 296 295 295 296 297 297 299 300 299 298 297 297 297 298 298 299 301 301 300 302 303 301 299 299 299 299 300 300 300 300 302 305 306 303 303 304 305 304 303 302 302 302 301 301 301 301 304 304 303 303 304 304 304 303 304 304 305 306 305 304 304 303 301 301 302 304 306 305 301 301 302 304 304
296 295 295 294 294 294 293 293 293 293 291 291 294 296 296 295 295 295 296 297 297 298 299 298 297 297 297 298 299 299 299 299 299 300 302 300 298 298 298 298 299 299 300 301 303 304 305 304 303 303 304 303 302 302 303 302 302 303 302 302 306 307 306 304 303 304 305 304 304 304 304 304 305 305 304 302 302 303 304 307 308 304 300 300 301 302 303
296 295 295 294 294 293 293 292 293 293 293 292 293 295 296 296 295 295 295 296 296 297 298 297 296 296 296 296 297 297 298 298 298 298 299 298 297 297 297 296 298 299 299 302 304 304 304 304 303 302 303 303 301 302 303 302 302 302 301 301 304 306 305 304 304 305 305 303 304 304 304 304 304 305 303 302 303 305 307 308 307 303 301 302 302 301 303
295 295 294 294 293 293 292 292 292 293 293 293 292 294 294 295 295 295 294 294 295 295 296 295 295 296 296 295 295 296 297 297 296 297 299 299 297 297 297 296 297 298 298 301 304 303 302 303 303 302 304 304 302 300 301 301 301 301 300 301 302 303 303 303 304 304 304 304 304 304 304 302 302 303 302 301 302 306 306 305 303 302 302 302 301 302 302
295 295 294 294 293 293 292 292 292 293 294 293 292 291 292 293 294 294 294 294 294 294 294 295 296 296 295 294 295 296 296 296 296 296 297 297 297 298 299 299 298 297 297 301 303 301 300 302 302 301 302 303 300 299 300 300 300 300 299 300 301 301 300 302 303 302 302 303 303 303 304 302 301 301 301 300 301 303 303 301 301 302 302 302 303 303 303
295 295 294 293 293 293 292 292 292 292 293 293 292 291 291 292 293 294 294 294 294 294 294 296 296 294 294 295 296 296 295 296 296 296 296 297 297 297 299 299 298 297 297 299 299 298 298 300 300 299 300 300 299 299 299 300 301 300 298 298 300 300 300 301 302 301 301 302 304 304 303 301 299 301 301 300 300 301 300 300 301 301 301 302 303 303 303
295 294 294 293 293 293 292 291 292 292 293 293 292 291 290 290 292 293 294 294 293 293 293 294 294 294 295 296 295 295 295 296 296 296 296 297 297 297 297 297 297 297 298 298 298 297 298 299 300 299 299 299 299 299 299 299 301 301 298 298 299 300 300 300 301 301 300 301 303 303 300 298 299 300 299 299 299 300 300 300 299 299 300 300 301 302 302
294 294 294 293 293 293 292 291 292 293 293 292 292 291 290 290 290 291 292 292 293 293 293 293 294 295 296 296 295 294 295 295 295 295 295 296 297 297 297 297 297 297 297 298 298 298 298 298 298 298 299 299 299 299 298 298 299 300 299 298 299 299 298 298 300 300 299 298 299 298 297 297 298 298 298 298 299 300 300 299 298 299 299 299 300 301 301
293 293 293 292 292 292 292 291 292 292 292 292 292 290 289 290 291 290 291 292 293 293 294 293 295 295 295 295 295 295 294 295 295 295 295 295 296 297 297 297 297 297 297 297 297 297 297 298 297 297 298 298 297 298 298 297 298 298 298 298 299 298 296 296 298 299 299 299 300 298 297 298 297 297 298 298 298 299 299 298 298 299 299 299 300 300 300
293 292 292 292 292 292 292 292 292 291 291 291 291 290 291 292 292 291 292 293 293 294 294 295 295 294 293 293 293 294 294 295 295 295 295 295 295 296 297 297 296 297 297 297 297 296 297 298 298 298 298 297 296 297 297 296 297 298 297 299 300 298 296 297 299 298 298 299 299 297 297 297 297 297 298 297 297 298 298 298 299 299 299 300 300 300 300
292 291 291 291 292 292 292 292 291 291 291 290 290 291 293 293 293 292 293 293 293 293 294 295 294 293 292 292 293 294 294 295 295 295 295 295 296 296 296 296 296 297 297 297 297 297 297 297 297 298 298 297 296 297 297 296 296 297 297 298 298 297 297 298 298 298 298 298 297 296 297 297 297 297 297 297 297 298 298 298 299 299 299 299 299 299 300
292 290 290 290 291 291 291 290 290 290 290 290 291 293 294 294 294 294 294 294 294 294 294 294 294 292 292 293 293 294 295 295 296 296 296 296 296 296 296 296 296 296 296 297 297 297 296 297 297 297 297 297 296 297 297 296 296 297 297 297 296 297 297 297 297 297 298 297 297 297 297 297 297 297 297 297 297 297 298 298 298 298 298 299 299 299 299
292 291 290 290 290 290 289 289 291 291 290 291 293 295 295 294 295 295 295 294 294 294 294 294 294 293 292 293 294 295 295 296 296 296 296 296 296 296 296 296 296 296 296 296 297 296 296 297 298 297 296 296 297 297 296 296 296 297 297 297 297 297 297 297 297 298 297 297 296 296 296 296 297 297 297 297 297 297 298 298 298 298 298 299 299 300 300
293 291 290 289 289 289 289 290 292 292 291 292 294 295 295 295 295 295 295 295 295 295 295 294 294 293 293 293 294 295 296 296 296 296 296 296 296 296 296 296 297 297 296 296 296 296 296 297 297 297 297 297 297 297 297 297 298 298 297 296 296 297 297 297 297 297 296 296 297 297 296 296 297 297 297 297 297 298 298 298 298 298 299 299 300 301 301
293 291 290 289 290 290 289 290 292 293 292 293 294 295 295 295 295 295 295 295 294 294 295 294 294 293 292 293 294 295 296 295 295 295 295 296 296 296 296 297 297 296 296 296 297 296 297 297 297 297 297 297 297 297 297 297 298 298 297 296 296 297 296 297 297 296 297 297 297 297 297 296 297 297 297 297 297 298 298 298 298 299 299 300 300 301 301
294 292 290 289 290 290 290 291 293 294 293 293 294 295 295 296 295 294 294 294 293 293 294 294 294 293 293 293 294 295 295 295 295 295 295 295 296 296 296 296 296 296 296 296 296 297 297 297 296 296 297 297 296 296 296 297 297 298 297 296 296 296 296 296 296 296 296 296 296 296 296 296 297 297 297 297 298 298 298 298 298 299 300 300 300 300 301
294 292 290 289 289 290 291 292 293 294 294 294 294 295 295 296 295 294 294 294 294 293 294 294 294 293 293 294 294 294 295 295 295 294 294 295 295 295 295 295 295 296 296 296 297 297 297 296 296 296 297 297 297 296 296 296 297 297 296 295 296 296 295 296 296 296 296 296 296 296 296 297 297 297 297 298 298 298 298 299 299 299 299 300 300 300 300
294 292 291 290 289 290 291 293 294 294 294 295 295 295 296 295 295 295 295 294 294 294 293 293 294 294 294 294 294 294 294 295 294 294 294 294 294 293 294 294 295 296 297 297 297 297 297 296 296 296 296 297 297 297 297 297 296 295 295 295 295 295 295 295 296 296 296 296 296 296 296 297 298 298 298 299 298 299 299 299 299 300 300 300 300 300 301
294 292 291 290 290 291 292 293 294 294 294 295 295 295 295 294 294 294 294 294 294 293 293 293 293 293 293 293 295 295 294 294 295 294 293 294 294 293 294 294 294 295 296 296 296 297 296 295 295 296 296 295 295 296 297 297 295 294 295 295 295 295 295 295 295 296 296 296 296 297 297 297 298 298 299 299 299 299 300 300 300 300 300 300 301 301 301
294 292 291 290 290 292 293 294 295 295 294 295 295 295 294 294 294 293 294 294 293 292 293 294 293 292 293 295 297 296 295 294 295 294 294 294 294 294 294 293 293 294 295 295 296 296 296 295 296 296 294 294 295 297 297 295 294 294 294 295 294 295 295 296 296 296 296 296 296 296 297 298 298 299 299 299 299 300 300 300 300 300 300 300 301 301 301
293 293 292 290 291 293 294 295 295 295 295 295 295 295 294 294 294 293 294 294 293 293 293 294 293 292 293 295 297 295 295 295 295 294 293 293 294 294 293 293 293 293 294 294 294 295 295 296 296 295 294 294 295 296 295 294 294 295 294 294 295 295 296 296 296 296 296 296 296 297 297 298 298 298 299 299 299 299 299 300 299 299 299 300 300 301 301
293 293 291 291 292 295 296 296 295 295 294 294 294 294 294 294 294 294 294 295 294 293 293 294 294 293 293 294 295 294 295 296 295 293 293 293 293 293 293 293 293 293 293 294 295 294 294 294 294 295 296 295 294 294 295 295 295 294 294 295 296 296 296 296 296 296 296 297 298 298 298 298 298 298 298 299 299 299 299 298 298 299 299 300 300 301 301
293 292 291 291 293 295 295 295 294 293 293 293 293 293 294 294 294 295 295 294 294 294 293 293 293 293 293 294 295 294 295 295 294 293 293 293 293 293 293 294 294 293 293 295 295 293 294 295 295 295 295 295 294 295 296 295 294 294 295 295 296 296 296 296 296 296 296 297 297 297 297 297 298 298 298 298 297 297 298 298 299 299 300 299 300 300 300
293 292 292 292 293 293 294 293 293 293 293 293 293 293 294 295 295 296 295 294 294 294 294 293 293 293 293 294 295 294 295 294 294 293 294 293 293 294 294 294 294 293 293 294 294 292 294 297 297 296 296 296 295 295 295 295 294 294 295 295 296 297 296 295 295 294 294 295 295 295 295 296 296 295 296 296 296 297 298 299 300 300 300 299 299 300 299
293 292 292 293 293 293 293 293 293 293 293 294 294 294 294 295 296 296 295 294 294 294 294 294 294 294 294 294 295 295 294 294 294 295 294 293 293 293 292 292 293 292 293 293 293 292 294 296 295 295 297 296 294 294 295 294 294 295 296 296 296 297 296 295 294 293 294 294 294 294 295 295 295 295 295 296 297 298 299 300 300 300 300 299 299 299 298
292 292 292 293 292 292 293 293 293 293 293 294 294 294 294 295 295 295 295 295 295 295 295 294 294 294 294 294 294 294 293 293 293 293 293 293 293 292 292 293 292 292 293 294 294 293 295 295 294 295 297 296 294 294 295 294 294 295 296 296 296 296 296 295 294 293 294 294 294 295 295 296 296 296 296 297 298 298 299 299 299 299 299 299 298 297 296
291 291 292 292 292 292 293 294 294 294 294 294 294 294 294 294 294 294 294 294 294 294 294 294 294 293 293 293 293 293 293 294 293 292 293 293 293 293 294 294 293 293 295 295 294 294 295 295 295 296 296 295 294 295 294 294 294 295 296 296 296 296 296 295 294 294 294 295 295 296 296 296 296 297 297 297 298 298 298 298 298 297 297 296 296 295 295
292 292 292 292 292 293 293 294 294 294 295 294 294 293 293 294 294 294 294 294 294 293 294 293 293 293 293 293 293 293 293 293 293 293 293 293 293 293 294 294 293 293 294 294 294 295 295 296 297 297 295 294 294 295 294 294 295 295 295 296 296 296 295 295 294 294 295 295 295 296 296 296 296 297 297 297 297 297 297 297 297 296 296 295 295 295 295
292 292 292 292 292 292 293 293 293 293 294 294 294 293 294 294 294 294 294 294 294 294 293 293 293 293 293 293 293 293 293 293 293 292 292 292 293 293 294 294 294 292 292 294 296 296 295 296 297 295 293 294 294 294 294 294 295 295 296 296 296 296 295 295 295 295 295 295 295 295 295 296 296 296 296 297 297 296 296 296 296 296 295 295 294 294 293
292 292 292 292 292 292 292 292 292 292 293 294 295 294 293 293 293 293 294 294 293 293 293 293 293 293 293 293 293 292 293 292 292 292 291 291 293 293 294 294 295 293 292 294 296 295 295 296 295 293 293 294 294 294 294 295 295 295 296 296 296 296 296 295 295 295 295 294 295 295 295 296 296 296 296 296 296 296 295 295 295 294 294 293 293 293 292
292 292 291 292 293 292 291 292 293 293 293 293 293 292 292 292 292 292 293 293 293 293 293 293 293 293 293 292 292 293 292 292 292 292 292 291 293 294 293 292 293 295 295 296 296 296 296 295 294 292 293 294 294 294 295 295 295 296 296 296 296 296 296 296 295 295 295 295 295 296 296 296 296 296 296 296 296 296 295 295 294 294 293 293 293 293 293
292 292 291 291 293 292 291 292 293 292 292 291 291 291 291 292 292 292 293 293 293 293 293 293 293 293 292 292 292 292 292 292 293 293 292 291 292 294 293 292 293 295 296 295 296 297 297 294 292 293 294 295 294 294 295 295 296 296 296 295 295 295 296 296 295 295 295 296 296 296 296 297 297 296 296 296 296 296 295 295 294 293 294 294 294 294 294
291 291 291 292 293 292 291 292 292 292 291 291 291 291 292 292 292 292 293 293 292 293 293 292 292 292 293 292 292 291 291 291 292 293 293 291 291 292 293 294 295 295 295 295 296 297 295 293 292 294 295 294 294 295 295 295 296 296 295 295 295 295 295 296 296 295 295 296 296 296 296 297 297 296 297 296 296 296 295 294 294 294 294 294 294 294 294
291 291 291 292 291 291 291 291 291 291 291 291 291 291 291 291 292 292 293 293 292 293 293 292 292 292 293 292 292 292 291 291 291 292 292 292 292 292 293 294 294 295 295 296 295 294 293 293 294 294 294 294 294 295 295 296 296 295 295 295 295 295 296 296 296 296 296 296 296 296 296 296 296 296 296 296 296 295 295 294 294 294 294 294 295 295 295
291 291 291 291 291 291 291 291 291 291 291 291 291 291 291 291 292 292 293 292 292 292 292 292 292 292 292 291 292 293 292 291 291 291 291 292 292 292 292 293 294 296 296 295 293 292 293 294 294 294 294 294 294 295 296 296 296 295 295 294 294 295 296 296 296 296 296 296 296 296 296 296 296 296 296 296 296 295 295 295 295 294 294 294 294 294 294
291 291 291 291 292 291 291 291 291 291 290 290 291 291 291 291 292 292 292 292 292 292 292 292 292 292 292 292 293 292 291 290 291 291 291 292 293 293 293 294 295 294 294 293 292 293 294 294 294 294 294 294 294 295 296 296 296 296 296 295 294 294 295 295 295 295 296 296 296 296 296 295 295 295 295 295 295 295 295 294 294 294 294 294 294 293 293
291 291 291 291 291 291 291 291 291 291 290 291 291 291 291 291 292 292 292 292 291 291 291 291 292 292 293 293 292 292 291 291 291 291 291 290 291 292 294 295 294 292 292 292 293 293 294 294 294 294 294 294 294 295 296 296 296 296 296 295 294 294 293 294 294 294 294 295 295 295 295 295 294 294 294 294 294 294 293 293 292 292 293 292 292 292 291
Wind_Speed
21 21 21 21 21 21 20 21 21 21 21 18 16 14 10 9 7 5 5 5 5 5 2 3 4 0 2 5 4 5 4 2 4 5 5 5 3 2 1 1 1 1 2 1 2 2 1 3 2 2 2 1 2 10 18 15 7 3 2 3 1 2 3 2 2 3 4 8 6 2 1 4 6 2 2 4 2 3 5 5 2 2 2 1 2 1 5
21 21 21 21 21 21 20 20 19 20 20 19 18 15 11 12 12 7 4 7 6 2 1 1 2 3 5 4 3 4 3 2 4 3 2 3 1 0 1 2 1 0 1 2 2 2 1 2 2 1 2 1 7 17 19 12 6 3 0 2 1 1 0 2 1 4 5 7 6 5 5 3 4 0 2 2 2 4 2 1 3 1 3 4 4 3 5
22 22 21 21 21 21 21 20 18 18 17 17 16 14 12 11 9 6 6 7 3 4 4 3 2 2 4 3 4 4 2 2 5 4 4 3 2 1 2 1 1 2 2 2 1 1 2 1 2 1 1 2 5 16 16 11 8 4 2 3 1 1 1 2 2 2 3 2 3 3 3 1 1 0 1 1 1 2 0 1 3 1 3 3 4 4 4
22 22 22 22 22 21 20 20 19 17 16 16 14 11 9 5 3 4 7 8 9 10 9 8 2 1 3 3 3 2 1 3 7 6 3 5 3 2 3 3 2 4 4 3 3 3 2 2 1 1 3 2 3 11 11 12 13 10 12 13 5 3 1 2 5 5 6 5 6 5 3 1 3 2 2 2 2 1 3 3 2 3 3 2 4 5 3
23 23 23 23 22 21 20 20 19 18 16 14 12 10 7 2 1 2 4 6 6 7 10 11 5 1 1 1 2 3 2 3 5 4 2 5 6 5 5 6 3 2 3 2 1 3 3 3 2 0 2 3 4 9 7 8 14 14 14 16 6 4 2 2 5 5 7 7 7 5 1 3 5 4 3 5 5 3 5 4 5 4 3 5 6 5 4
23 24 24 24 23 22 21 20 19 19 17 14 12 9 6 3 1 2 2 2 0 2 6 9 6 3 2 1 1 4 4 3 3 3 1 4 7 4 3 6 4 1 2 3 1 2 3 3 2 1 2 2 4 7 4 4 13 14 11 11 6 4 2 3 3 4 6 5 6 5 3 3 5 5 6 6 6 5 6 7 6 6 5 8 6 6 7
24 24 24 24 23 22 22 20 19 19 18 17 13 7 5 4 1 1 3 2 2 2 6 7 4 3 3 2 3 4 5 5 4 3 2 3 5 4 1 1 2 1 2 4 3 0 0 2 3 1 1 3 2 4 3 2 10 12 7 6 4 3 2 3 1 3 5 5 5 4 4 4 4 5 7 6 7 8 8 7 6 7 8 9 6 7 9
24 24 23 23 22 22 22 20 19 19 18 16 13 10 7 5 3 4 6 4 3 4 6 3 2 3 4 3 3 3 4 5 5 5 3 1 3 4 2 3 3 1 3 5 3 4 5 4 2 2 1 2 1 1 2 2 5 7 3 2 4 2 2 2 2 3 6 6 5 4 3 4 5 7 6 5 6 7 6 4 4 5 7 8 7 7 9
23 23 23 23 22 21 21 20 19 19 18 16 14 14 9 5 4 6 6 3 4 5 4 3 3 2 4 2 2 3 3 5 6 4 3 4 1 0 2 4 2 2 3 3 4 7 7 7 5 5 4 3 4 3 2 1 3 4 1 1 2 2 1 2 4 3 6 4 5 6 4 2 6 7 5 7 7 6 5 4 5 6 6 7 6 5 6
23 23 23 22 21 20 19 19 19 19 18 15 14 14 10 4 1 4 3 2 4 4 3 3 3 1 3 4 4 3 4 7 6 2 2 5 4 1 4 4 1 2 2 1 3 6 5 5 7 7 8 8 7 6 6 4 2 1 1 1 1 2 1 1 1 2 6 4 3 5 5 5 8 7 8 10 10 7 5 4 5 7 6 4 5 5 6
24 23 22 22 21 20 18 17 17 17 17 16 15 14 12 8 4 5 3 1 3 5 4 3 3 1 4 7 6 4 4 8 7 2 1 2 6 6 2 2 3 0 2 5 7 6 5 6 7 9 10 10 7 7 8 7 7 7 5 1 2 4 4 3 3 3 5 4 2 4 4 6 8 5 8 11 10 9 7 6 6 7 5 3 5 5 4
24 24 23 21 21 19 17 16 15 14 13 13 12 11 11 10 6 5 4 0 2 5 4 1 2 2 6 9 7 4 4 6 7 3 3 3 6 10 9 6 4 2 8 11 9 7 6 4 4 6 7 7 8 9 8 6 9 11 10 6 3 3 5 3 2 3 4 2 2 2 7 8 5 2 4 7 7 8 7 5 6 5 5 4 5 5 4
24 23 23 22 21 19 17 15 13 12 10 9 9 9 9 9 6 4 3 1 2 2 2 2 4 6 8 8 7 6 6 7 8 5 1 3 5 9 10 9 6 8 13 12 7 5 3 2 1 1 3 4 5 6 5 4 6 9 8 8 7 4 3 2 1 2 1 1 3 5 5 5 5 5 3 2 1 3 1 5 6 3 4 5 5 4 4
23 23 22 22 21 19 18 16 13 11 9 7 8 8 8 8 7 5 4 1 1 3 2 2 5 8 9 8 6 6 7 9 10 6 3 4 5 6 10 11 12 13 12 9 6 3 1 1 3 3 3 5 5 3 3 3 3 5 5 6 7 5 3 2 2 3 2 3 3 3 4 7 6 4 3 2 2 2 2 3 4 4 3 3 3 3 4
23 22 22 21 20 19 18 16 15 13 10 6 5 6 7 9 9 6 4 1 1 3 2 2 3 6 8 8 5 5 4 6 6 5 5 6 6 8 11 13 14 13 8 4 2 2 2 0 1 2 2 2 2 3 3 3 3 4 4 4 3 4 5 4 3 2 2 2 3 3 3 5 5 3 4 4 5 6 4 2 1 4 3 1 2 3 5
23 22 21 21 20 19 17 16 15 14 11 6 4 4 7 8 6 4 3 2 1 1 0 2 5 4 5 5 4 4 3 3 3 4 4 6 8 12 15 15 13 12 9 4 1 4 2 1 2 1 2 2 1 2 2 2 4 3 3 5 5 2 1 4 4 1 1 3 4 3 3 5 5 5 7 7 9 7 1 3 1 5 4 3 2 5 6
23 22 21 21 21 19 17 15 15 15 12 7 3 4 6 7 5 4 4 3 2 3 6 3 6 5 2 2 3 4 4 4 3 1 1 4 7 11 17 17 13 12 12 5 1 3 3 2 2 1 2 2 2 2 2 1 2 4 5 5 6 5 3 3 3 3 2 3 3 3 3 3 4 5 7 9 10 7 4 1 4 6 8 9 6 7 8
22 21 21 20 20 19 17 15 16 16 14 9 4 2 5 6 5 5 5 4 5 3 7 5 8 5 3 3 4 4 5 6 4 2 3 4 3 8 16 15 9 9 10 5 1 2 2 1 1 2 3 3 1 2 2 1 1 3 4 3 3 3 2 1 2 3 3 3 3 3 2 2 4 6 8 10 8 6 4 3 5 8 12 12 10 10 12
21 21 20 19 19 18 17 15 15 16 15 11 5 1 4 7 7 7 8 5 3 4 5 6 5 2 2 8 7 4 5 5 3 3 2 1 5 13 14 7 5 7 8 5 2 1 2 1 1 2 1 3 1 1 2 1 1 2 2 2 2 2 2 2 0 1 2 3 2 3 3 2 3 5 7 9 5 2 2 6 10 14 16 16 15 15 15
21 20 20 20 19 17 17 15 14 15 16 14 9 3 3 6 6 7 8 7 6 9 7 1 5 4 7 12 8 5 7 6 3 3 1 2 9 15 8 1 5 8 5 4 3 1 2 1 3 1 1 2 1 1 2 2 2 2 0 1 1 1 1 3 2 1 0 0 0 1 2 2 3 3 4 5 1 3 7 11 14 15 14 16 17 16 14
22 21 20 20 19 18 17 15 14 14 14 14 12 7 3 4 5 5 6 7 8 9 4 3 4 8 9 4 3 6 9 8 7 8 7 8 11 9 2 2 4 4 1 2 2 1 1 0 1 2 1 1 2 1 1 2 4 3 1 0 2 1 1 1 2 1 0 0 1 2 3 3 2 2 0 4 7 9 8 8 10 13 15 15 14 14 14
22 21 20 19 18 18 17 15 15 15 14 14 14 10 6 4 5 7 9 9 10 11 10 9 10 8 1 4 5 8 7 7 8 5 6 9 9 6 5 7 4 1 1 1 2 0 1 0 0 0 1 1 1 1 0 0 3 4 2 1 2 2 3 3 3 3 3 4 6 7 7 6 3 3 7 12 14 11 7 8 12 15 16 16 15 16 17
22 21 20 19 18 17 16 16 15 15 15 15 13 12 11 9 8 9 9 8 10 12 10 7 3 2 4 4 2 6 4 3 6 6 2 5 7 6 9 9 4 1 2 3 2 2 2 2 1 1 1 2 1 0 1 2 2 3 2 2 3 5 4 2 2 2 4 5 7 9 10 9 9 12 16 17 15 13 12 14 17 18 17 16 16 18 20
21 20 20 19 18 17 16 16 15 14 14 14 13 13 13 11 11 11 6 5 8 8 4 2 2 3 5 4 4 4 2 0 3 4 2 3 5 5 7 8 5 4 4 4 4 2 3 2 1 2 1 3 3 2 3 4 3 2 2 2 4 3 1 0 2 3 4 4 4 6 11 15 18 22 22 17 15 16 17 19 20 19 19 18 18 19 21
21 20 19 19 18 17 15 15 15 14 14 14 13 12 10 8 9 9 6 6 8 6 3 4 1 4 12 11 4 3 3 2 5 5 2 3 5 5 7 7 6 8 8 6 6 5 3 1 1 1 2 4 4 2 2 3 3 1 1 2 4 2 2 2 3 4 4 5 8 14 22 26 25 21 18 15 15 17 18 19 19 19 19 20 21 22 22
20 20 19 19 18 17 16 15 15 15 14 14 11 9 8 7 7 7 8 7 5 3 2 4 4 9 14 10 5 4 3 2 5 6 5 6 6 7 8 7 8 11 11 8 8 8 5 2 2 1 2 4 5 3 3 3 3 1 2 6 9 5 3 3 3 3 5 6 10 15 18 19 18 16 16 17 19 20 20 20 21 22 23 23 24 24 25
19 19 19 19 18 17 15 15 15 15 14 12 9 6 6 8 9 9 10 9 6 2 1 5 12 17 15 9 7 7 4 2 2 4 5 7 8 10 10 9 9 11 10 8 8 8 5 2 2 3 3 4 4 3 4 4 2 1 4 8 7 4 4 4 3 4 5 6 10 12 7 7 15 22 23 23 23 22 23 25 26 27 28 28 27 26 26
19 18 18 18 18 16 14 13 14 14 13 10 7 5 5 7 8 8 9 10 8 4 4 11 19 18 11 8 9 7 4 5 7 3 2 3 4 7 10 11 11 12 11 9 6 5 4 2 3 3 3 3 3 3 3 1 0 1 5 6 6 7 7 6 4 5 8 13 21 22 13 12 22 29 28 27 27 25 26 28 29 30 30 28 26 25 24
19 18 18 17 17 14 12 11 12 13 12 9 5 3 4 5 6 6 7 7 8 8 9 13 14 11 9 10 10 7 4 7 10 8 5 4 3 5 6 7 8 10 12 10 6 5 5 5 6 6 5 5 3 1 1 1 1 4 10 13 14 16 18 17 14 13 15 22 29 28 22 22 29 33 32 32 31 29 30 31 31 29 28 25 22 21 22
18 18 17 16 15 13 10 9 10 11 11 8 5 3 2 3 4 5 6 6 7 9 9 7 6 9 12 12 12 9 7 8 9 9 8 6 6 6 6 5 5 5 8 9 6 5 5 6 6 7 10 10 5 1 1 2 2 5 13 19 20 20 20 21 20 18 20 26 30 30 29 32 34 36 36 34 31 30 31 31 28 26 25 24 22 22 22
18 17 17 16 14 12 9 7 8 9 9 8 6 3 1 1 2 4 6 6 7 9 8 6 8 11 11 10 10 11 11 10 10 10 9 8 7 7 6 7 7 6 8 8 7 5 5 5 5 5 8 11 7 3 1 2 1 5 13 15 14 15 17 20 22 23 24 28 30 30 33 35 33 32 33 30 27 27 28 28 27 27 27 26 26 26 26
17 17 17 16 15 12 8 6 6 7 6 5 5 5 3 3 4 5 6 6 8 9 7 6 6 6 6 9 11 12 11 10 10 10 10 9 8 9 9 9 9 9 8 6 4 4 4 6 7 6 7 8 7 3 1 3 4 8 13 15 16 18 21 23 25 25 26 28 27 24 26 30 29 27 27 27 26 26 28 29 29 29 28 28 29 29 27
18 17 16 15 14 12 9 6 5 6 4 3 3 4 3 3 4 5 7 8 9 7 4 4 2 1 5 9 11 11 12 11 10 11 11 10 10 12 11 9 8 8 7 5 4 3 4 5 5 4 5 7 5 2 1 4 5 10 16 20 22 25 27 28 29 29 29 29 25 20 23 28 28 26 26 27 28 28 28 27 26 26 27 28 28 26 23
19 17 15 14 13 10 8 7 7 7 6 3 1 1 3 4 6 8 8 9 8 5 3 3 1 1 5 8 6 8 12 11 9 9 9 9 12 13 9 8 7 5 4 5 4 4 4 5 4 3 3 4 3 0 2 4 9 18 23 25 28 29 30 30 29 27 27 27 25 24 26 28 28 28 28 29 28 26 24 22 22 23 24 24 24 22 20
20 18 16 13 11 9 7 7 7 6 6 5 4 4 5 7 9 10 9 8 5 3 2 2 1 1 3 4 3 6 11 11 8 7 9 10 12 10 7 6 5 2 2 4 4 3 3 3 4 2 1 1 2 2 3 5 14 22 26 28 30 29 27 25 25 26 27 28 28 28 26 24 25 27 27 25 22 19 19 20 22 22 22 22 21 18 16
21 19 16 12 8 6 4 3 2 3 4 5 6 6 7 10 12 11 9 8 5 3 3 1 0 2 1 1 3 6 10 10 6 6 9 10 9 8 6 4 3 3 3 3 2 2 2 3 3 1 2 1 3 3 4 10 18 24 27 29 29 26 24 24 24 26 28 27 26 23 20 19 19 19 18 18 17 16 18 22 22 21 22 22 19 16 14
22 20 15 10 5 3 1 1 2 3 5 8 10 11 10 11 10 8 7 6 4 5 5 2 1 4 4 3 4 6 6 6 6 5 6 7 8 7 5 2 2 3 3 1 2 3 3 3 2 1 2 3 3 3 10 18 23 26 28 28 27 25 22 20 19 20 22 21 18 16 14 13 13 13 13 16 17 18 20 22 20 20 22 22 19 15 11
21 17 12 7 3 2 1 2 4 8 10 9 9 8 7 6 4 3 4 3 2 4 5 4 4 6 6 4 4 5 4 5 6 4 3 4 6 5 2 1 2 2 2 3 5 5 4 2 0 1 3 3 3 7 16 24 28 28 25 23 24 23 19 15 14 16 16 14 12 11 11 12 14 17 18 19 18 17 17 16 15 15 14 14 11 9 7
19 14 9 8 6 3 4 6 9 11 9 5 3 2 2 2 1 1 2 2 2 3 4 5 7 7 8 6 6 7 5 4 4 2 2 3 3 1 1 2 1 1 2 2 3 3 3 2 1 2 3 3 4 12 22 28 30 27 21 18 21 21 16 14 15 15 12 12 12 11 12 13 16 18 18 15 12 11 9 6 7 7 3 4 6 10 12
20 16 13 12 11 8 6 8 10 8 4 1 1 1 2 2 2 2 3 2 1 3 6 5 6 7 8 8 7 6 5 5 5 4 3 3 3 2 1 1 1 1 1 3 3 2 1 1 2 2 2 3 7 18 27 30 29 25 18 16 19 18 14 14 15 13 10 11 12 11 11 11 12 12 12 11 10 7 2 4 4 4 9 14 16 16 17
22 20 18 16 14 11 8 6 5 3 1 1 1 1 1 2 3 2 2 1 1 3 6 5 4 4 6 8 9 7 7 8 8 6 4 3 3 2 1 1 1 1 0 3 4 2 2 0 2 2 3 6 16 26 30 30 28 23 18 16 15 13 12 12 12 10 11 12 11 10 10 10 9 9 10 9 5 2 8 13 13 13 15 18 19 20 22
18 19 19 17 14 11 8 4 0 1 1 1 0 1 1 1 2 2 2 2 2 2 4 5 4 3 5 6 8 8 8 6 5 3 2 2 2 2 1 1 2 1 2 4 3 3 2 2 2 3 5 15 26 30 30 30 28 23 17 12 8 7 8 10 9 9 11 12 12 13 12 10 8 7 6 3 6 13 17 18 19 20 21 22 24 26 27
14 14 15 13 10 7 6 3 0 1 0 1 1 1 2 1 1 2 2 3 2 2 3 4 3 4 5 6 8 8 6 5 5 3 1 2 2 1 1 1 1 1 3 3 2 2 1 2 3 4 11 23 29 29 29 30 27 19 11 5 4 5 7 8 7 7 9 9 11 11 9 4 2 3 8 14 20 24 25 25 26 26 27 27 28 29 29
13 10 9 7 5 3 3 2 0 0 1 0 1 1 1 2 3 2 2 3 4 3 4 3 2 3 4 5 6 5 4 3 3 2 2 2 2 1 1 1 3 3 3 3 2 0 2 3 4 7 18 26 29 29 30 29 24 14 4 1 2 4 4 4 4 5 5 5 4 2 4 9 13 18 23 27 29 31 31 30 30 30 30 31 32 31 31
14 10 7 5 3 2 2 1 0 0 1 2 1 2 1 2 2 3 5 9 8 5 3 2 4 5 6 6 4 3 3 1 1 2 2 0 1 0 1 2 2 1 2 2 1 2 3 3 4 12 22 26 28 30 30 26 17 6 1 2 1 2 3 4 5 5 6 6 8 12 16 21 25 28 30 30 30 31 31 31 30 31 31 32 32 31 30
11 8 6 3 2 1 1 0 0 1 1 1 1 0 2 4 6 9 13 14 10 6 3 3 5 6 7 6 3 2 3 2 1 2 1 2 1 2 3 1 1 2 2 2 2 3 3 4 7 16 24 25 27 29 26 18 8 3 2 1 1 2 4 5 7 9 11 14 17 19 22 25 27 28 28 28 28 28 29 29 29 30 31 31 30 29 27
8 6 4 1 1 2 1 2 2 3 3 3 5 7 9 11 12 14 16 15 8 7 3 4 5 5 6 4 2 3 4 2 1 2 1 2 0 2 1 2 1 0 1 1 4 4 4 6 14 22 25 24 25 25 19 10 4 3 2 1 0 2 3 6 9 12 15 18 20 21 22 24 25 25 26 26 26 25 26 26 27 29 29 29 27 25 24
6 4 2 1 1 1 2 2 3 7 10 11 12 13 14 15 15 15 17 13 6 7 3 6 5 4 4 2 2 2 2 0 0 2 1 1 1 2 2 2 2 2 1 3 4 5 5 11 20 24 22 21 23 21 12 5 4 4 5 4 2 0 4 8 12 14 16 17 19 21 22 24 24 24 25 25 24 24 24 25 25 26 26 24 23 21 19
6 4 3 2 3 5 7 7 8 11 14 15 16 15 15 16 17 15 16 13 6 7 6 7 5 3 2 2 1 1 1 1 0 1 1 1 1 0 1 0 2 4 3 3 4 5 11 18 22 22 20 20 21 16 6 4 3 4 6 7 4 2 6 10 14 17 18 20 22 23 25 26 27 26 26 26 26 26 25 24 23 23 21 19 18 17 16
5 5 5 5 4 6 7 7 6 6 9 15 18 18 17 18 19 15 13 14 13 11 9 6 4 2 1 2 1 1 2 2 1 1 1 1 1 1 0 1 3 4 4 4 7 13 18 21 21 20 18 18 17 11 2 4 3 1 4 7 7 6 8 10 13 17 19 21 24 25 25 27 28 28 27 26 25 24 22 21 19 18 17 15 14 15 15
3 5 7 8 9 9 8 7 6 7 9 15 20 20 18 19 20 17 15 18 18 13 6 5 3 0 2 1 0 1 2 1 1 0 1 2 2 2 1 3 5 6 7 12 16 19 19 19 19 18 17 16 13 6 3 5 4 3 2 4 6 9 10 11 12 14 15 17 19 20 20 21 23 24 24 23 22 21 21 19 18 17 16 15 15 14 14
5 6 7 10 14 17 16 15 15 15 16 19 21 20 19 19 19 19 19 20 17 10 7 5 2 2 1 1 2 1 0 1 1 1 2 3 2 3 4 7 9 11 14 18 20 19 18 17 17 16 15 13 9 3 5 6 5 4 4 3 5 9 13 14 15 15 16 16 17 16 16 16 16 17 18 18 18 18 19 18 17 16 16 15 14 13 12
Wind_Direction
4 4 4 2 2 1 359 357 350 345 347 349 352 354 352 342 323 295 285 277 305 353 2 344 358 98 311 316 287 298 310 325 345 346 3 1 338 4 26 203 210 189 186 164 136 110 197 234 220 224 246 97 50 5 9 11 14 52 20 306 327 83 80 71 295 292 307 303 312 353 17 89 90 49 51 90 101 114 153 180 181 206 227 148 126 243 264
5 5 4 2 2 1 359 359 356 353 352 351 350 349 345 332 312 291 309 309 301 314 203 308 331 298 322 337 317 314 302 338 4 340 316 320 287 16 328 239 201 194 125 106 166 173 143 236 245 234 233 203 40 20 12 12 21 36 312 252 318 341 293 108 0 327 336 336 344 353 343 47 102 352 22 83 86 80 92 105 87 229 232 161 159 230 243
5 3 2 2 2 0 359 360 358 356 354 349 347 345 340 334 309 294 346 352 7 95 95 108 184 275 331 328 304 313 294 327 337 302 292 307 243 201 302 246 124 37 40 61 24 131 119 246 268 18 312 241 31 17 10 19 18 3 30 35 17 235 216 151 140 239 246 282 287 272 286 318 73 125 105 37 21 65 14 53 89 253 258 161 165 219 256
6 3 1 1 0 360 360 359 357 358 355 347 347 346 343 349 331 315 350 22 65 82 63 52 68 305 0 327 290 287 243 302 314 300 331 11 13 50 12 350 53 39 33 49 17 6 29 4 8 26 334 284 347 357 6 27 18 13 26 16 9 127 88 176 157 178 205 210 232 230 196 224 273 256 199 233 263 134 109 106 156 204 223 239 215 195 241
5 3 1 358 358 359 358 357 359 359 356 351 350 351 352 12 30 348 349 7 49 70 43 31 25 316 347 302 278 294 285 309 326 320 46 32 27 63 45 20 40 38 27 76 46 343 339 5 44 74 303 264 300 335 359 35 19 19 23 10 17 103 359 271 170 195 219 209 230 253 245 229 242 245 220 211 217 165 125 171 217 179 169 267 250 188 211
0 0 0 357 356 356 355 357 358 357 359 1 358 356 6 20 41 70 41 334 346 59 2 355 350 320 283 236 304 334 330 326 318 308 0 31 27 49 43 21 32 21 37 104 149 339 354 1 11 207 314 309 322 341 353 41 23 22 19 13 45 115 290 265 200 255 259 231 240 257 263 244 228 222 215 207 213 201 187 213 211 162 186 250 241 198 219
356 357 358 357 355 355 355 356 357 359 4 3 1 12 28 24 11 35 19 317 244 286 317 321 343 352 336 342 8 7 351 335 297 299 349 15 10 34 106 332 352 30 77 110 140 232 168 328 306 244 349 353 354 350 327 2 30 30 18 5 45 117 264 275 245 307 303 282 266 257 250 253 251 244 229 213 214 213 212 225 207 185 220 248 239 231 243
356 356 357 358 358 354 354 356 355 1 6 3 13 37 37 32 23 344 344 332 309 323 328 336 46 20 5 4 349 359 10 351 318 319 8 352 324 26 107 246 271 128 99 102 141 201 183 179 241 203 102 358 287 254 265 263 9 23 21 342 19 56 275 294 50 6 302 294 307 309 265 234 246 256 237 203 212 228 233 235 201 198 242 255 256 263 265
358 359 358 0 2 358 357 358 355 359 4 7 28 43 38 52 44 356 343 334 341 350 347 9 78 38 10 5 327 340 358 339 317 316 41 84 115 38 186 232 298 41 61 92 187 216 187 177 217 212 185 218 222 206 212 232 343 0 13 298 3 43 295 338 42 347 279 288 318 309 318 300 254 245 213 194 207 221 222 210 191 192 217 247 270 276 266
359 1 0 0 4 4 1 359 358 359 360 7 30 39 31 43 32 345 349 311 338 3 358 8 62 56 347 348 330 314 311 325 337 349 38 66 66 333 218 191 87 8 16 39 237 233 213 225 257 256 245 243 228 229 257 260 240 231 183 238 228 156 169 294 74 271 269 278 297 304 350 336 273 238 194 196 211 220 227 244 227 200 185 203 234 236 237
1 2 1 1 4 8 7 4 1 359 359 8 24 26 18 16 344 334 12 273 315 10 23 16 50 41 343 346 333 300 311 337 360 50 245 2 28 9 338 129 93 125 292 319 301 271 254 258 261 254 253 253 243 250 265 258 240 225 201 205 231 173 171 197 180 214 264 281 342 350 322 271 255 229 184 191 204 208 212 230 227 209 191 192 218 235 238
3 1 1 3 6 9 11 10 6 3 5 12 18 15 10 10 353 344 22 155 298 10 36 23 20 344 323 332 328 301 309 330 336 328 265 298 18 34 38 47 53 318 323 329 308 270 257 258 247 240 246 256 260 262 263 259 262 255 230 214 232 202 190 205 182 195 248 288 51 298 261 250 261 284 209 197 187 174 188 235 246 225 223 234 245 249 223
3 1 1 4 6 9 13 14 12 9 8 9 10 11 6 3 1 358 23 58 273 335 358 309 334 343 331 333 339 327 331 344 343 340 314 307 4 36 34 23 359 330 333 333 312 279 274 293 336 293 284 315 304 275 263 259 279 281 252 216 213 214 202 201 182 189 229 121 153 205 247 283 301 301 283 246 182 130 160 291 297 278 217 218 235 252 239
1 1 2 3 4 8 12 15 14 10 9 8 5 6 357 353 2 4 8 44 256 301 326 315 329 342 336 335 350 351 351 2 360 352 353 350 359 16 9 357 348 344 339 324 307 320 22 29 18 359 333 353 1 317 288 287 289 306 294 243 213 194 170 174 213 215 185 176 207 242 311 315 298 297 325 317 283 266 238 255 281 287 245 201 193 238 255
1 1 3 2 3 6 10 14 16 12 13 13 359 353 349 349 358 3 10 66 261 311 3 35 325 315 310 320 356 15 354 359 357 335 338 1 3 350 347 347 347 350 348 318 304 67 83 74 39 7 335 353 336 292 303 321 294 280 293 290 239 191 181 176 193 215 160 181 253 294 303 278 268 276 288 292 296 280 242 162 239 268 266 242 194 237 256
2 2 3 3 4 6 8 13 16 16 19 21 356 340 346 348 351 1 19 69 92 284 56 28 359 325 294 307 359 21 343 324 337 328 334 354 348 338 339 343 348 0 6 353 75 90 78 185 145 163 225 191 208 274 285 305 300 300 336 357 1 351 168 142 156 216 131 167 227 243 223 242 253 256 274 311 334 317 279 102 241 254 285 330 272 254 262
2 3 3 4 4 4 7 11 14 17 21 25 16 351 352 349 344 355 17 41 4 266 230 273 353 7 8 339 343 354 345 325 331 0 318 313 325 335 341 343 350 8 14 4 28 77 87 156 131 145 230 207 173 228 273 277 294 313 333 356 8 7 23 88 158 224 210 171 222 245 220 244 263 258 281 325 353 15 59 70 264 270 308 327 306 282 287
2 2 2 4 3 2 5 8 9 13 18 22 30 7 350 347 344 350 359 3 346 284 224 262 328 355 48 9 313 309 334 330 324 332 307 300 325 337 335 341 358 8 8 18 62 60 81 162 173 163 227 271 194 193 265 281 224 283 315 352 9 358 350 62 164 206 220 208 239 267 253 255 274 286 313 335 358 44 101 192 255 282 301 315 315 301 298
360 359 359 359 359 360 3 4 5 8 11 14 23 1 326 330 329 334 346 5 353 292 274 289 286 231 351 342 324 310 334 335 325 333 329 328 348 336 328 344 35 7 358 28 65 59 73 303 292 130 175 295 341 158 273 276 221 276 334 355 343 343 337 331 38 197 218 192 204 272 282 265 260 288 337 359 20 100 204 280 301 302 300 310 317 308 300
358 357 356 356 356 359 0 1 4 5 5 7 13 22 334 319 315 325 345 357 325 307 318 44 167 205 319 331 335 338 336 335 330 332 310 252 325 339 344 35 15 358 0 30 21 23 68 314 307 34 78 288 358 17 307 307 292 271 78 37 283 234 304 301 265 224 266 37 21 277 253 251 257 280 11 34 79 252 287 302 312 314 311 316 318 312 307
356 355 355 354 354 356 356 357 360 1 2 1 0 8 5 310 282 275 299 315 308 307 325 150 236 302 319 333 27 4 341 338 329 304 284 287 314 342 32 231 311 340 29 59 39 26 47 339 295 346 348 325 356 345 316 337 311 285 246 346 278 223 176 252 259 241 146 179 222 207 202 225 230 189 331 302 282 283 298 309 314 318 318 316 310 303 299
355 354 353 351 351 353 353 354 355 355 357 356 351 352 356 331 281 266 274 283 285 286 288 286 292 308 342 128 55 14 1 6 6 334 284 293 306 313 288 277 283 246 226 59 77 230 289 78 151 353 338 284 310 305 322 16 295 292 309 294 236 217 199 213 242 243 217 213 232 251 271 279 274 285 306 302 291 279 286 306 308 308 306 301 294 289 288
354 352 351 350 349 350 350 350 352 349 348 351 347 340 341 337 317 300 287 286 296 294 295 304 309 112 132 158 350 0 7 16 19 32 18 294 289 289 285 276 261 234 230 187 161 184 178 168 172 136 205 229 209 234 297 269 236 251 276 262 247 250 246 226 212 258 293 278 252 256 274 282 291 305 309 304 290 273 279 299 304 301 298 293 289 289 290
352 350 349 347 346 347 347 347 348 344 341 345 341 336 338 337 328 324 316 327 340 336 326 347 85 73 14 336 300 326 359 284 321 358 26 268 256 259 269 262 256 271 248 210 208 199 162 174 184 118 196 235 185 171 258 263 232 212 236 288 291 283 283 263 236 269 305 295 260 279 295 296 301 306 305 300 289 277 281 294 299 298 296 292 291 293 294
350 348 348 345 343 343 343 341 341 340 339 341 340 340 343 341 335 341 358 11 10 11 343 322 6 12 353 348 335 323 329 264 263 274 282 279 261 253 265 268 269 278 274 252 230 207 175 172 183 141 209 224 202 194 229 238 240 207 153 261 275 294 18 335 251 234 240 250 271 289 292 292 295 296 294 296 297 289 287 292 296 295 292 289 289 291 290
348 346 344 342 340 339 337 337 341 343 344 346 350 355 1 11 21 24 22 16 15 24 342 303 304 339 349 2 37 25 356 289 265 255 254 275 275 269 275 273 266 273 274 257 228 216 203 167 153 162 206 200 193 197 203 214 234 210 216 249 250 254 291 288 254 267 277 270 274 282 287 290 291 288 287 296 302 301 298 298 297 295 293 293 293 292 290
345 343 339 337 338 339 340 345 352 357 358 359 6 22 31 40 46 38 28 25 22 34 31 294 313 337 359 23 32 24 34 41 321 264 252 262 264 265 270 266 265 269 261 239 221 216 207 180 178 201 218 212 203 211 223 229 233 221 253 254 240 230 257 256 253 287 282 263 270 277 279 281 285 288 293 298 302 303 301 300 300 299 299 299 299 297 295
341 340 336 335 338 340 346 355 2 6 11 13 20 39 51 52 43 25 18 17 10 354 290 295 312 331 357 18 23 35 50 26 16 6 319 299 276 271 268 261 266 267 249 229 216 200 184 192 213 212 211 208 212 239 249 235 95 256 257 243 210 211 236 235 225 248 255 264 276 281 275 267 280 289 295 299 301 302 300 299 300 300 300 301 300 298 298
339 338 335 334 336 339 346 356 359 4 14 25 43 66 66 50 34 12 355 355 353 338 320 313 319 330 338 352 16 47 51 21 24 27 15 3 343 324 301 272 265 257 239 225 212 202 208 218 221 228 234 217 200 240 268 186 157 245 256 255 252 255 259 257 250 251 263 274 282 285 282 278 284 291 295 298 300 300 297 297 299 299 298 298 296 295 297
338 336 333 331 331 331 337 349 352 356 8 23 44 73 73 49 32 1 339 340 343 339 333 321 312 319 327 343 7 23 25 24 25 19 10 358 342 340 334 314 295 258 233 226 220 222 237 232 225 238 243 230 208 111 201 210 203 253 261 266 270 273 274 271 267 267 274 281 286 288 285 284 288 292 293 294 295 294 294 296 298 298 295 293 292 293 294
337 334 329 325 321 319 321 332 339 346 357 11 25 41 50 26 3 337 331 337 339 335 330 304 294 309 326 348 4 4 3 9 12 9 8 4 358 357 342 318 304 273 245 239 233 229 239 235 231 247 241 223 202 155 197 216 226 268 271 277 285 290 292 293 290 288 287 289 293 293 289 287 288 288 288 290 294 294 295 296 296 295 294 292 291 291 289
339 333 328 322 315 309 303 306 325 340 350 6 23 31 17 338 326 310 301 316 333 335 330 318 309 312 326 345 357 2 4 13 20 16 14 15 7 354 343 327 306 282 263 247 222 219 246 243 241 257 251 221 192 160 208 210 217 261 285 304 314 311 309 308 304 299 294 293 294 292 289 289 290 289 290 295 297 296 297 296 294 292 293 293 293 291 286
342 335 330 323 313 302 289 287 309 321 319 327 16 29 15 345 320 295 287 303 322 327 320 320 327 298 308 326 348 8 12 13 16 8 5 6 354 341 340 340 319 287 259 239 217 222 255 245 235 260 258 218 184 142 240 226 247 291 310 318 319 316 315 312 306 300 296 292 289 281 279 285 290 290 291 292 293 293 294 293 291 291 293 294 295 291 283
343 338 335 326 314 297 282 283 293 289 282 279 276 314 321 318 312 303 293 296 307 310 298 300 302 297 310 315 335 9 6 360 358 354 351 349 344 339 337 333 323 293 247 243 237 229 247 241 223 244 250 205 180 211 244 264 312 323 323 321 319 319 318 314 307 301 298 297 294 285 279 281 284 285 285 287 290 291 288 284 285 288 291 293 294 290 282
345 342 339 329 316 300 290 295 289 262 244 238 243 259 287 309 316 315 304 298 300 290 269 275 241 267 329 325 324 353 353 346 336 331 329 330 333 331 322 316 314 287 248 257 240 222 241 223 199 215 253 166 168 229 235 294 322 325 323 320 320 320 316 309 304 300 298 298 296 292 286 284 284 285 286 288 288 285 280 279 282 285 287 290 292 290 284
346 344 342 334 322 308 300 300 259 219 223 243 258 269 290 305 311 310 300 295 290 254 243 286 188 182 183 268 277 312 333 337 328 319 320 322 321 315 309 303 286 279 280 261 236 252 264 208 185 230 298 214 208 236 287 321 323 323 321 317 317 317 312 305 301 300 299 298 297 296 294 291 288 285 285 283 281 279 280 283 286 287 288 290 291 289 283
347 346 347 346 333 302 268 159 189 261 291 290 284 286 294 300 303 298 285 281 272 245 240 258 258 227 216 229 277 300 318 322 318 314 314 312 307 302 298 267 259 302 324 304 276 293 281 228 200 232 255 230 228 290 332 334 327 321 317 314 315 319 316 309 306 308 308 306 302 296 292 289 283 280 280 282 282 283 284 287 290 292 292 289 285 279 269
348 348 348 349 337 271 245 281 292 301 310 308 297 294 295 293 290 282 266 247 225 230 229 233 259 249 219 213 273 290 282 298 319 326 313 311 312 309 310 294 281 319 343 302 286 298 310 313 148 214 258 263 283 324 332 331 327 322 318 316 321 325 320 311 314 319 319 321 319 310 303 298 291 289 290 291 292 293 294 294 296 300 301 295 279 251 213
347 351 357 358 352 333 309 304 302 306 315 319 305 288 277 261 266 266 222 182 183 217 218 229 250 238 205 207 272 288 274 282 321 337 314 315 313 299 324 330 318 4 2 305 292 319 332 323 351 342 300 275 301 326 330 329 327 326 325 323 324 322 314 310 317 317 313 315 315 310 306 301 294 294 298 303 309 314 313 302 298 310 359 91 134 150 147
347 353 359 355 348 339 321 300 294 296 303 303 279 293 271 254 244 203 174 167 214 213 207 224 258 251 225 226 257 284 279 267 271 281 295 290 263 245 333 331 295 13 357 282 280 322 338 283 321 341 271 249 305 326 331 331 329 330 331 326 322 316 308 314 323 323 317 314 310 306 305 303 297 297 303 311 319 324 333 137 139 131 123 124 129 132 133
347 346 343 340 340 339 332 312 289 274 221 165 226 288 247 241 246 213 178 173 285 232 215 221 253 270 248 233 235 257 282 278 268 272 291 278 245 242 302 287 294 31 177 260 287 0 81 18 309 262 236 297 324 331 333 332 332 332 331 326 319 308 304 317 330 332 326 324 322 319 317 311 305 304 304 304 302 180 143 135 127 125 125 125 125 124 124
339 328 322 325 333 337 338 342 116 162 143 127 144 311 279 250 259 250 221 225 258 255 225 217 228 277 290 266 254 264 282 286 273 270 285 276 256 243 235 308 7 58 230 263 315 40 58 322 289 244 289 324 331 332 332 332 332 331 328 325 321 317 321 331 334 325 320 325 329 326 320 309 299 292 283 237 138 128 126 122 116 114 114 116 117 117 116
336 320 315 320 331 339 344 349 169 183 77 74 64 338 325 319 316 303 261 246 266 263 218 216 251 302 303 284 278 279 280 277 276 272 248 256 282 324 44 29 15 233 255 291 21 58 307 263 223 256 312 328 331 331 332 333 332 329 326 327 345 349 341 336 330 321 322 328 328 323 319 310 267 168 141 129 119 113 110 108 108 108 108 108 109 109 107
345 335 322 317 322 343 352 339 202 127 11 42 139 129 338 327 319 307 295 298 293 260 215 217 277 306 293 288 295 295 278 267 279 278 265 274 300 44 71 264 251 255 300 341 34 340 268 237 224 293 320 328 330 332 335 336 332 327 321 31 14 0 351 344 348 353 354 353 345 4 105 114 117 117 115 113 111 108 107 106 107 106 104 104 103 101 100
353 355 350 337 323 341 344 312 228 156 252 234 164 142 189 271 266 267 295 303 289 246 214 254 268 264 278 297 302 275 255 269 293 261 252 353 35 32 236 243 243 308 354 346 331 313 300 264 277 313 324 329 332 335 338 339 337 330 148 134 58 55 62 51 46 53 59 75 98 110 112 112 113 111 108 106 107 108 109 109 109 107 106 105 104 103 102
356 1 6 358 318 333 8 105 297 313 240 186 118 5 281 282 279 290 309 311 290 235 227 287 268 258 282 306 309 265 268 283 276 246 203 89 64 263 250 255 353 17 22 356 307 291 266 251 289 317 326 330 335 338 341 346 360 65 109 104 99 94 76 65 76 87 91 96 103 107 106 107 109 109 107 107 109 111 112 112 111 109 108 107 107 107 106
352 3 16 0 283 316 316 219 238 273 281 302 321 322 323 320 310 311 326 327 293 236 247 302 280 273 297 307 279 269 278 260 203 258 249 118 170 278 329 28 349 246 133 275 269 255 245 278 308 321 328 333 337 339 343 360 45 61 35 10 68 118 98 95 99 100 100 102 103 102 102 105 108 110 111 111 112 114 115 115 113 112 111 110 109 108 106
337 347 350 267 232 251 242 251 295 298 294 302 312 316 323 327 323 328 342 339 281 224 261 319 301 287 304 297 245 268 297 332 242 274 264 118 64 323 357 10 314 258 208 218 228 229 267 302 315 323 328 332 335 338 349 37 67 34 28 27 6 126 123 114 107 105 106 108 109 109 110 111 112 114 116 115 115 117 119 119 119 117 115 112 110 108 105
306 293 261 241 251 258 260 278 302 299 293 301 309 313 322 328 325 329 346 348 303 246 276 308 296 265 285 289 265 297 309 294 116 331 351 26 9 274 146 68 290 284 262 216 218 263 299 311 319 324 327 329 332 338 2 99 98 43 44 44 41 106 134 121 111 108 109 110 110 111 114 115 116 117 117 116 116 119 121 123 123 121 119 116 113 107 99
282 260 239 232 249 268 274 286 299 293 294 306 310 312 319 323 319 321 343 347 327 299 281 269 243 225 289 328 22 11 296 256 179 83 347 282 221 180 166 257 245 239 239 254 280 300 310 316 320 323 324 327 330 335 22 140 149 101 65 60 69 107 130 125 115 111 110 109 108 108 108 110 113 115 116 116 118 120 120 121 122 120 117 114 109 101 92
266 254 243 236 242 257 272 281 283 280 286 296 303 306 309 311 309 312 325 330 325 314 280 235 215 120 28 17 140 236 269 263 151 127 257 241 189 143 167 231 230 238 271 295 306 312 316 317 318 318 321 326 327 319 177 163 174 181 132 92 95 110 120 123 121 118 115 113 110 107 104 104 106 110 113 116 118 117 113 109 109 109 108 105 101 95 88
234 252 262 262 262 266 269 270 271 273 276 283 293 301 302 300 303 310 316 318 315 297 256 232 191 105 111 213 206 199 273 340 1 285 262 252 212 176 202 239 261 279 291 302 311 317 316 315 315 315 317 321 322 279 190 185 189 183 168 149 130 122 120 121 123 123 122 118 114 109 106 104 104 106 110 112 112 110 108 106 105 106 105 101 95 89 82